Location: Hilton Head Island
(32.2163°N, 80.7526°W)
Time: 17:46:10
(UTC-05:00)

Altair - Visible Passes

Search period start: 16 February 2026 00:00
Search period end: 26 February 2026 00:00
Orbit: 1502 x 1682 km, 47.2° (Epoch: 15 February)

Date Brightness Start Highest point End Pass type
(mag) Time Alt. Az. Time Alt. Az. Time Alt. Az.
16 Feb 9.1 02:49:23 21° E 02:49:23 21° E 02:53:14 10° ENE visible
16 Feb 7.3 04:47:26 54° SW 04:49:59 87° NW 04:59:25 10° NE visible
17 Feb 9.5 02:25:56 15° E 02:25:56 15° E 02:27:39 10° E visible
17 Feb 7.2 04:23:58 77° SW 04:24:46 87° SE 04:34:09 10° NE visible
17 Feb 8.1 06:22:00 11° W 06:30:18 40° NNW 06:39:06 10° NE visible
18 Feb 7.4 04:00:24 74° E 04:00:24 74° E 04:08:53 10° NE visible
18 Feb 8.0 05:58:26 18° W 06:04:56 42° NNW 06:13:47 10° NE visible
19 Feb 7.9 03:36:46 54° ENE 03:36:46 54° ENE 03:43:38 10° NE visible
19 Feb 7.9 05:34:47 26° WNW 05:39:36 44° NNW 05:48:29 10° NE visible
20 Feb 8.4 03:13:03 39° ENE 03:13:03 39° ENE 03:18:21 10° NE visible
20 Feb 7.8 05:11:04 35° WNW 05:14:15 46° NNW 05:23:12 10° NE visible
21 Feb 8.9 02:49:17 28° ENE 02:49:17 28° ENE 02:53:04 10° ENE visible
21 Feb 7.7 04:47:17 45° NW 04:48:55 48° NNW 04:57:56 10° NE visible
22 Feb 9.2 02:25:27 20° ENE 02:25:27 20° ENE 02:27:46 10° ENE visible
22 Feb 7.6 04:23:28 51° NNW 04:23:36 51° NNW 04:32:40 10° NE visible
22 Feb 8.5 06:22:14 10° WNW 06:30:16 32° N 06:38:31 10° ENE visible
23 Feb 9.6 02:01:34 13° ENE 02:01:34 13° ENE 02:02:27 10° ENE visible
23 Feb 7.8 03:59:35 51° N 03:59:35 51° N 04:07:24 10° NE visible
23 Feb 8.5 05:57:36 13° WNW 06:04:50 32° N 06:13:05 10° ENE visible
24 Feb 8.1 03:35:40 45° NNE 03:35:40 45° NNE 03:42:10 10° NE visible
24 Feb 8.4 05:33:41 18° WNW 05:39:26 32° N 05:47:40 10° NE visible
25 Feb 8.4 03:11:43 37° NNE 03:11:43 37° NNE 03:16:55 10° NE visible
25 Feb 8.4 05:09:44 23° NW 05:14:01 33° N 05:22:16 10° NE visible
